Snowfall_Accumulation
0.4 0.2 0.2 0.2 0.3 0.5 0.6 0.9 1.7 1.7 0.8 0.7 0.7 0.6 0.8 0.9 0.5 0.5 0.3 0.2 0.1 0.0 0.0 0.0 0.1 0.1 0.1 0.1 0.1 0.0 0.1 0.0 0.0 0.0 0.0 0.0 0.0 0.0
0.4 0.4 0.3 0.2 0.2 0.3 0.4 0.6 0.9 1.6 1.4 0.6 0.5 0.6 0.8 1.0 0.6 1.1 0.9 0.1 0.2 0.1 0.0 0.0 0.1 0.1 0.1 0.1 0.1 0.1 0.1 0.1 0.0 0.0 0.1 0.1 0.1 0.0
0.8 0.7 0.5 0.4 0.4 0.3 0.5 0.5 0.8 1.1 1.5 0.7 0.4 0.5 0.7 0.9 1.0 1.0 0.9 1.1 0.8 0.3 0.4 0.1 0.1 0.2 0.2 0.2 0.3 0.3 0.2 0.2 0.2 0.1 0.1 0.1 0.1 0.1
0.7 0.7 0.7 0.7 0.6 0.5 0.5 0.6 0.6 0.7 1.3 1.1 0.6 0.5 0.8 1.0 0.8 0.7 0.7 0.9 0.8 0.7 0.4 0.2 0.2 0.4 0.4 0.4 0.3 0.3 0.3 0.3 0.2 0.2 0.2 0.1 0.2 0.1
0.7 0.8 0.7 0.9 1.0 0.6 0.6 0.6 0.6 0.6 0.9 1.3 0.9 0.7 0.7 0.9 1.0 0.7 0.6 0.6 0.8 0.5 0.6 0.1 0.2 0.7 0.7 0.5 0.5 0.6 0.5 0.3 0.3 0.3 0.4 0.4 0.3 0.2
0.7 0.7 0.8 1.0 1.0 1.1 1.3 1.4 1.2 1.6 1.7 2.1 1.9 1.6 1.6 1.4 1.3 1.4 1.3 1.0 1.1 1.0 0.9 0.8 0.6 0.6 0.7 0.5 0.4 0.4 0.4 0.4 0.6 0.6 0.6 0.7 0.6 0.7
1.0 0.8 0.8 1.0 1.2 1.6 2.4 3.0 3.2 3.4 3.5 3.8 3.3 2.7 2.4 2.1 1.9 1.8 1.9 1.6 1.3 1.5 1.6 1.1 1.6 1.3 0.5 0.5 0.5 0.2 0.4 0.6 0.8 1.0 1.1 1.1 1.0 0.9
1.7 1.5 1.5 1.7 1.5 1.8 2.0 2.4 4.0 5.9 6.4 6.0 4.9 3.7 2.5 1.9 1.7 1.9 2.4 3.0 2.7 1.7 2.4 2.2 2.0 2.3 1.4 0.7 0.7 0.8 0.9 1.1 1.3 1.2 1.3 1.2 1.2 1.1
2.6 2.2 2.1 2.1 2.1 1.8 1.8 2.0 2.6 3.1 4.0 4.6 4.6 3.2 2.4 2.1 2.8 3.4 3.1 3.8 3.3 2.2 2.6 3.7 2.6 2.6 2.3 1.2 0.6 0.9 1.1 1.0 1.3 1.5 1.4 1.4 1.6 1.3
2.8 2.4 2.1 1.5 1.4 1.8 2.6 2.9 1.9 1.3 1.4 1.7 2.1 2.1 2.0 2.0 3.2 4.7 4.5 4.1 2.7 2.0 2.4 4.2 2.8 3.0 2.4 1.7 0.8 0.9 1.0 1.2 1.2 1.4 1.6 1.8 2.0 2.0
2.3 2.0 1.7 1.5 1.3 2.9 4.2 3.9 2.1 1.2 0.8 1.2 1.8 2.2 2.5 2.6 3.3 5.6 7.0 7.6 5.6 2.9 2.2 3.4 3.3 2.8 2.2 2.3 1.7 1.3 1.0 1.2 1.0 1.2 1.4 1.5 1.9 1.9
2.5 1.7 1.3 1.7 2.6 3.9 4.8 5.1 4.3 2.3 1.5 1.0 1.3 1.3 1.8 1.9 1.8 3.9 6.4 9.8 8.1 5.5 2.7 3.0 3.7 4.5 5.0 2.4 2.1 2.0 2.1 1.0 1.0 1.2 1.2 1.4 1.6 1.9
3.8 2.8 1.9 2.3 3.4 4.2 4.8 5.0 4.9 4.2 3.9 3.6 2.4 2.3 1.9 2.2 1.9 2.3 3.5 7.7 10.5 7.8 3.2 5.8 7.7 6.0 8.3 5.0 2.1 1.9 2.1 2.2 1.9 1.7 1.5 1.7 2.2 2.6
5.6 4.0 3.2 4.1 4.5 4.4 4.4 4.2 4.4 4.7 5.0 5.1 4.8 4.0 3.4 3.4 3.0 2.7 2.7 3.2 4.5 5.3 3.6 6.8 12.3 9.7 11.4 9.2 4.8 2.2 2.2 2.1 2.6 2.7 2.7 3.2 3.5 3.9
5.3 4.9 5.4 5.6 5.1 4.4 3.8 4.0 4.3 4.6 5.4 5.9 5.0 4.4 3.4 3.1 2.9 3.4 3.7 3.3 3.3 3.1 3.0 3.7 7.6 9.0 12.0 12.1 7.6 4.2 3.4 2.4 2.5 3.1 3.3 3.8 4.1 4.4
4.4 5.0 4.7 4.3 4.0 4.0 4.2 4.2 4.5 4.5 5.5 5.7 5.0 4.7 4.3 4.3 5.2 5.3 6.6 6.2 7.2 6.1 3.9 2.9 4.3 8.1 12.0 8.9 8.7 7.0 5.0 5.0 3.5 4.1 4.4 3.7 3.8 3.8
7.3 6.9 6.0 5.3 5.3 4.6 4.7 4.7 5.1 5.7 5.8 5.9 5.7 6.2 6.0 6.2 6.4 6.0 7.2 8.0 9.2 7.7 5.8 4.7 4.6 5.8 7.7 8.8 9.4 6.0 4.7 5.1 4.9 5.8 6.5 6.1 4.1 3.9
8.0 8.5 7.1 6.0 6.0 5.9 6.5 6.2 6.1 6.7 6.4 7.2 7.2 7.5 7.7 8.3 8.0 7.4 8.1 9.0 9.1 7.3 6.5 5.9 7.2 8.6 8.1 7.2 6.2 6.3 6.2 6.4 6.1 5.7 6.7 9.4 6.7 4.0
7.6 6.9 6.2 6.3 6.5 6.1 6.5 7.2 7.3 7.2 7.5 8.6 8.6 9.0 9.6 9.9 9.6 9.4 9.2 9.6 9.0 7.7 7.0 7.0 8.9 14.4 16.4 10.3 6.5 4.9 7.6 8.6 7.4 7.7 7.9 10.1 10.5 6.9
6.1 5.9 6.2 6.3 7.0 7.6 7.7 7.7 7.7 7.6 8.0 8.9 9.1 9.3 10.2 11.3 11.1 10.2 9.7 10.2 10.1 9.4 8.6 7.0 8.5 12.6 18.1 15.0 11.3 6.7 5.0 8.5 11.9 12.5 9.8 8.0 7.9 4.3
5.8 6.0 6.5 7.2 7.4 8.0 9.0 9.1 9.5 9.2 9.1 9.9 10.4 10.5 11.2 12.8 12.6 11.0 10.8 10.5 11.0 11.3 10.7 8.1 6.5 8.0 12.8 17.6 15.8 8.8 6.8 6.2 8.2 14.4 15.8 15.5 12.5 8.8
6.8 6.8 7.0 7.0 7.8 8.6 9.5 9.9 10.0 9.8 10.0 10.2 10.5 10.9 11.3 12.8 13.1 11.9 11.7 12.3 11.2 10.2 10.0 8.9 8.6 10.3 14.2 17.9 14.0 8.4 7.1 6.7 6.5 6.5 10.0 16.0 23.7 22.6
8.3 7.9 7.6 7.8 8.1 9.5 9.9 10.1 10.3 9.9 9.9 10.5 11.1 11.1 11.7 12.9 12.2 12.6 12.6 13.0 12.9 12.2 12.0 11.6 11.1 11.4 11.9 12.4 13.0 10.5 8.6 7.6 7.8 8.0 8.7 8.2 9.3 10.1